Location: ??? ?????
(30.6482°N, 60.5850°E)
Time: 05:15:04
(UTC+00:00)

ATLAS 5 CENTAUR R/B - Pass Details

Date: 09 April 2020
Orbit: 543 x 1116 km, 63.4° (Epoch: 01 May)

Event Time Altitude Azimuth Distance (km) Brightness Sun altitude
Rises 14:47:54 0° 207° (SSW) 2,687 5.0 -6.3°
Reaches altitude 10° 14:50:02 10° 207° (SSW) 1,800 4.1 -6.8°
Maximum altitude 14:54:00 86° 121° (ESE) 564 1.3 -7.6°
Drops below altitude 10° 14:58:17 10° 30° (NNE) 1,929 3.9 -8.5°
Sets 15:00:39 0° 30° (NNE) 2,901 4.8 -9.0°
